Wind_Speed
16 14 11 13 12 10 5 3 8 8 6 7 11 9 10 13 16 21 26 29 23 24 19 6 7 8 11 11 7 6 8 10 9 7 5 6 4 1 3 7 10 6 4 3
18 15 16 19 16 14 9 5 0 3 2 1 5 9 7 12 15 18 22 21 21 16 14 9 4 5 1 4 7 4 3 5 5 6 6 5 6 9 9 8 9 2 6 3
20 18 23 24 20 16 14 9 9 8 9 1 1 7 9 14 20 19 22 14 15 17 19 22 11 10 8 5 5 7 4 2 1 1 3 6 7 11 15 17 16 18 13 10
23 22 27 29 25 17 19 21 15 13 10 3 4 6 11 16 18 15 19 16 13 21 26 35 26 11 7 12 16 10 9 10 9 6 4 4 4 6 10 14 17 16 15 15
23 23 28 32 29 24 25 22 19 15 10 8 5 9 10 13 15 15 16 17 18 21 22 27 28 28 14 27 20 20 18 18 17 14 12 5 7 11 12 16 18 19 19 17
31 29 30 32 29 28 26 24 22 19 15 11 9 14 16 17 17 15 14 11 20 23 21 21 21 27 33 26 17 24 25 23 18 16 10 4 5 8 10 14 17 19 21 22
31 30 30 29 27 28 28 25 23 21 19 13 11 16 20 18 17 18 14 14 20 30 24 21 20 24 28 13 13 28 32 37 22 27 21 6 5 9 12 17 21 22 23 24
35 31 30 30 30 33 32 29 26 23 22 16 14 14 16 20 14 18 14 18 25 23 23 24 29 21 18 14 31 28 30 35 24 32 14 1 4 9 14 19 20 22 23 27
33 30 32 33 36 37 35 35 28 27 22 18 18 17 16 18 19 21 23 20 26 14 20 29 22 7 14 24 18 44 18 10 12 15 12 4 7 12 17 21 24 26 28 30
32 30 32 37 40 38 39 34 30 26 26 21 20 23 20 20 19 20 22 23 17 10 15 19 21 17 14 12 13 14 17 9 6 8 10 10 12 14 18 22 27 30 32 33
32 32 30 34 42 40 41 40 36 34 29 24 20 23 18 18 18 22 22 17 7 7 11 14 16 14 13 13 16 14 12 15 14 11 12 11 15 19 20 24 28 30 31 33
32 34 31 34 40 43 45 43 41 39 33 27 22 17 17 16 21 25 20 16 11 14 15 15 13 15 13 13 16 21 22 19 17 15 15 16 19 19 22 26 28 30 30 30
33 36 33 34 37 44 46 44 43 36 37 33 29 26 20 19 24 24 15 14 13 21 21 16 16 16 16 16 16 20 21 22 23 24 23 22 23 23 25 26 29 30 30 29
33 36 36 36 34 37 42 43 43 38 34 33 31 30 17 15 16 21 19 16 15 19 21 18 16 16 16 16 19 22 22 24 25 25 25 25 25 27 28 29 29 30 29 28
34 35 34 30 35 37 40 41 39 37 34 26 29 21 16 17 18 20 20 17 18 25 26 18 17 16 16 18 21 23 25 25 24 24 24 25 26 29 29 30 30 30 30 28
33 32 26 31 35 39 41 40 33 33 33 28 24 23 20 22 22 19 19 18 23 24 23 22 20 18 20 23 27 27 25 24 24 25 25 26 28 29 29 29 29 29 29 29
32 27 23 29 32 40 41 40 35 35 30 28 29 23 23 27 24 18 21 26 22 26 20 21 22 24 26 29 29 27 26 26 29 29 30 30 30 29 29 29 28 29 31 32
29 26 21 24 29 37 37 35 36 33 31 29 27 26 29 28 21 27 24 20 17 19 19 22 23 27 28 29 30 29 28 30 31 30 29 28 28 28 29 30 32 33 33 33
29 27 24 25 27 33 36 38 36 30 28 30 27 28 19 25 26 14 17 16 19 20 20 23 26 27 27 28 28 26 28 30 30 28 27 27 29 30 32 33 34 34 34 34
29 26 30 27 26 34 37 33 35 35 32 27 26 22 23 16 9 16 18 18 15 17 22 24 23 24 26 27 26 28 32 33 31 29 28 29 31 33 34 34 34 34 33 32
30 33 31 32 34 36 34 35 34 35 26 22 21 14 11 11 15 17 18 13 16 21 24 24 26 27 28 27 27 31 33 30 29 29 29 32 34 34 33 33 33 31 31 32
31 36 37 38 40 39 27 26 29 21 24 22 24 19 14 12 12 12 20 20 21 24 27 27 29 30 29 29 31 33 29 28 28 30 32 34 35 33 33 32 31 32 33 36
40 39 41 36 38 32 26 21 14 18 24 23 13 13 15 15 15 21 23 25 26 27 26 27 29 29 30 31 33 30 29 29 30 32 34 33 32 32 30 30 31 34 36 37
46 38 41 41 39 39 37 23 19 22 17 16 17 18 17 19 19 23 25 27 27 26 27 27 28 28 30 34 31 30 30 31 33 35 33 31 32 30 30 30 33 35 35 33
49 45 40 36 31 30 20 16 25 26 24 20 18 23 27 24 23 28 25 28 28 27 26 26 28 30 32 31 29 29 31 33 36 34 32 32 30 30 31 33 36 33 31 33
51 43 37 32 30 25 21 16 22 28 28 28 30 28 27 27 30 29 28 31 30 28 26 26 28 30 30 28 28 29 32 35 34 32 32 30 30 30 33 35 33 31 31 34
Wind_Direction
224 222 219 217 215 215 229 145 109 112 105 93 83 56 34 13 360 3 6 352 358 357 14 10 22 29 12 355 17 20 49 67 54 36 72 83 65 246 198 233 262 325 220 245
231 232 211 218 213 210 227 152 205 217 178 42 45 27 25 359 353 355 351 353 339 346 334 296 264 299 45 23 326 334 34 71 69 57 43 34 16 358 330 350 56 248 289 340
232 230 214 218 222 217 216 189 207 220 222 184 346 39 355 346 348 358 351 348 312 307 321 329 352 248 261 310 290 281 239 242 280 56 28 15 1 344 338 344 354 354 5 7
230 226 220 219 223 225 198 216 216 228 250 252 274 318 334 345 340 343 349 358 300 320 324 336 320 290 299 327 305 290 249 241 244 249 256 281 317 316 322 325 333 334 338 349
228 228 224 223 224 224 199 223 231 234 239 276 276 297 318 327 313 327 344 345 2 343 342 332 329 352 309 327 295 292 265 244 238 245 253 275 288 298 310 310 311 314 317 319
221 220 232 227 227 222 213 226 235 238 243 271 311 291 291 290 310 324 333 2 3 4 343 323 315 328 330 322 278 284 281 252 249 246 250 212 310 313 315 313 307 301 298 294
224 222 229 226 221 217 212 219 231 241 248 264 287 286 289 294 311 318 326 2 1 358 331 309 300 316 330 294 259 272 275 279 227 235 254 183 275 304 313 308 303 300 300 296
224 221 223 227 215 214 216 219 232 240 240 247 270 280 280 285 299 325 329 346 355 5 320 313 300 309 315 20 14 10 281 261 258 294 247 334 303 328 324 323 325 312 300 294
225 221 226 224 218 217 226 223 228 242 244 248 258 270 273 276 285 303 313 343 355 349 347 1 354 7 26 34 13 41 13 346 46 11 18 16 343 328 320 320 318 313 308 302
220 218 221 223 225 223 223 227 228 232 246 251 263 263 274 274 296 311 321 353 349 341 342 7 15 31 45 31 19 23 55 59 36 349 339 347 334 311 309 311 312 310 305 300
218 216 218 225 223 223 223 230 231 237 247 254 264 277 278 274 283 299 317 358 4 7 350 344 339 0 13 6 341 1 16 11 5 329 299 298 291 297 304 312 311 305 302 298
219 219 211 223 222 222 225 228 231 236 243 250 259 268 277 282 282 290 312 337 340 356 327 328 322 323 340 353 341 346 347 342 326 305 302 294 286 299 316 311 304 299 300 298
218 220 214 221 221 223 223 229 236 243 247 251 259 259 279 275 276 285 317 328 296 332 331 318 319 317 323 334 338 330 326 324 318 311 306 304 304 301 300 304 306 303 296 296
219 220 216 221 225 222 227 229 233 238 241 252 260 265 277 279 290 294 306 322 298 306 324 306 313 314 315 324 326 320 314 309 305 303 305 310 311 311 308 305 302 298 298 299
216 221 223 215 214 215 220 228 233 242 246 254 263 263 252 267 271 291 304 306 296 300 312 297 301 309 314 316 312 310 305 306 306 308 310 309 309 307 304 303 304 304 305 305
212 218 220 212 207 212 219 228 231 242 249 245 245 242 257 270 279 294 299 303 294 307 307 296 295 299 303 307 307 305 310 313 316 317 315 313 310 306 304 306 308 306 304 302
210 218 212 206 204 210 219 227 234 243 243 249 256 250 263 271 282 294 290 285 300 301 308 303 304 306 305 304 308 313 318 322 323 321 319 318 314 312 311 308 306 308 306 306
217 218 212 216 211 217 220 226 235 241 245 249 251 259 266 268 272 280 286 311 293 305 301 304 306 302 305 309 314 317 322 321 320 319 315 312 310 310 311 312 313 311 309 308
226 224 221 213 220 230 229 228 237 244 245 253 264 275 249 257 272 280 302 303 302 295 302 304 304 307 309 312 312 313 313 313 316 316 316 319 318 318 316 315 312 311 311 311
231 233 225 223 225 237 236 239 243 249 246 259 265 264 263 268 257 277 294 299 301 305 305 303 309 313 313 310 310 319 321 322 322 322 321 318 318 317 315 314 313 313 313 312
225 222 228 232 236 242 243 245 247 247 248 265 253 236 213 231 258 288 303 293 297 305 304 316 321 315 310 312 316 320 323 323 319 318 317 318 317 316 315 314 315 315 313 311
222 224 226 232 240 249 257 254 252 255 255 229 221 204 231 252 275 294 309 305 306 307 301 308 311 309 314 318 319 322 321 317 316 315 317 316 316 316 316 316 314 314 314 313
220 229 233 238 248 254 260 275 252 250 257 269 219 223 239 258 273 305 317 305 303 301 301 306 310 314 318 320 323 319 317 315 314 315 316 317 317 316 315 314 315 314 314 315
224 223 232 241 248 250 251 254 230 242 213 203 213 234 251 269 286 303 304 301 306 310 311 312 311 316 322 324 319 315 315 315 315 315 318 317 316 315 315 316 316 317 319 321
221 225 229 238 241 243 232 245 225 250 255 265 238 253 280 286 309 301 298 300 304 308 308 309 316 321 321 316 313 314 315 316 315 317 317 318 318 319 319 319 320 321 324 326
222 222 224 230 235 230 221 241 233 238 241 249 250 256 271 285 297 302 293 296 302 305 307 314 316 315 313 311 312 313 314 315 317 318 319 319 320 320 321 322 323 325 325 327
Height
5910 5913 5915 5917 5916 5918 5919 5920 5922 5924 5923 5923 5921 5922 5923 5922 5921 5921 5921 5917 5916 5913 5911 5908 5907 5905 5905 5904 5902 5902 5899 5898 5897 5897 5895 5893 5891 5889 5883 5882 5880 5881 5881 5881
5909 5912 5913 5914 5915 5917 5918 5920 5922 5921 5922 5922 5921 5921 5923 5922 5921 5922 5921 5919 5916 5913 5910 5904 5903 5903 5900 5903 5904 5904 5902 5899 5898 5897 5896 5893 5890 5887 5885 5881 5879 5879 5856 5878
5906 5910 5909 5911 5913 5916 5918 5920 5919 5920 5919 5919 5920 5921 5922 5921 5921 5922 5921 5918 5914 5910 5908 5902 5897 5900 5898 5901 5902 5904 5902 5899 5896 5895 5894 5893 5891 5889 5887 5883 5877 5873 5871 5872
5901 5903 5905 5908 5911 5914 5916 5916 5917 5917 5916 5917 5918 5920 5920 5920 5920 5921 5921 5916 5913 5911 5909 5906 5898 5901 5899 5901 5903 5903 5900 5897 5894 5894 5893 5893 5891 5889 5887 5885 5881 5879 5876 5873
5900 5900 5901 5904 5908 5909 5913 5914 5915 5915 5916 5916 5917 5918 5919 5919 5919 5920 5919 5916 5914 5911 5908 5904 5901 5896 5898 5896 5895 5894 5894 5892 5891 5889 5888 5888 5888 5887 5884 5885 5883 5881 5878 5876
5890 5894 5896 5901 5903 5907 5911 5912 5913 5914 5914 5914 5915 5916 5917 5916 5917 5918 5916 5915 5912 5909 5905 5900 5894 5893 5892 5885 5887 5889 5888 5888 5888 5886 5883 5881 5885 5884 5882 5883 5880 5877 5876 5876
5885 5889 5892 5897 5901 5905 5908 5909 5910 5912 5912 5912 5912 5913 5913 5914 5914 5914 5913 5912 5908 5905 5899 5895 5891 5890 5886 5883 5886 5883 5880 5881 5876 5873 5855 5867 5878 5882 5881 5881 5879 5875 5873 5870
5879 5884 5888 5893 5898 5900 5903 5906 5907 5907 5909 5911 5910 5911 5913 5911 5912 5912 5910 5909 5904 5900 5894 5889 5885 5886 5887 5882 5883 5869 5868 5871 5879 5875 5874 5874 5877 5878 5877 5876 5874 5871 5868 5867
5875 5880 5882 5888 5892 5896 5898 5902 5905 5904 5905 5907 5908 5909 5910 5909 5910 5909 5907 5904 5901 5896 5890 5885 5880 5883 5882 5880 5879 5874 5867 5877 5877 5879 5875 5874 5874 5874 5873 5870 5867 5865 5862 5860
5870 5876 5878 5882 5885 5890 5894 5899 5901 5901 5902 5903 5904 5905 5906 5907 5907 5905 5904 5902 5897 5894 5889 5888 5886 5882 5881 5882 5882 5882 5880 5882 5881 5879 5878 5873 5871 5873 5870 5866 5863 5859 5856 5853
5863 5868 5874 5876 5878 5885 5890 5892 5895 5897 5899 5899 5900 5902 5903 5904 5903 5902 5902 5900 5896 5894 5891 5890 5888 5885 5884 5882 5881 5880 5880 5877 5877 5877 5874 5870 5871 5870 5865 5860 5857 5853 5850 5846
5858 5862 5867 5869 5873 5878 5881 5886 5889 5891 5895 5896 5897 5899 5900 5901 5900 5899 5900 5899 5896 5894 5892 5891 5889 5887 5884 5882 5879 5875 5872 5872 5873 5873 5870 5868 5868 5863 5856 5854 5851 5848 5843 5840
5850 5854 5860 5861 5866 5869 5874 5881 5885 5887 5890 5891 5893 5894 5896 5897 5897 5896 5897 5896 5894 5893 5891 5890 5887 5884 5882 5879 5877 5875 5871 5869 5868 5868 5866 5862 5859 5854 5850 5845 5842 5839 5837 5834
5842 5847 5851 5856 5863 5867 5871 5875 5879 5882 5884 5887 5888 5890 5893 5894 5893 5892 5894 5894 5892 5891 5890 5886 5884 5881 5880 5878 5876 5875 5874 5871 5867 5862 5856 5850 5846 5842 5840 5838 5836 5834 5829 5826
5838 5842 5846 5851 5856 5861 5866 5870 5873 5876 5880 5882 5884 5886 5889 5890 5889 5889 5890 5889 5888 5886 5885 5883 5880 5879 5878 5877 5876 5874 5870 5866 5860 5854 5851 5847 5843 5840 5837 5834 5829 5826 5821 5817
5834 5838 5842 5847 5851 5856 5860 5864 5868 5871 5874 5877 5879 5882 5884 5884 5884 5884 5886 5885 5883 5881 5878 5877 5876 5874 5874 5872 5869 5865 5861 5857 5852 5847 5843 5839 5836 5832 5828 5824 5821 5817 5814 5812
5832 5835 5840 5843 5847 5850 5853 5858 5863 5866 5870 5873 5875 5878 5880 5880 5881 5880 5879 5879 5878 5877 5874 5870 5868 5866 5865 5862 5858 5855 5850 5844 5840 5835 5831 5828 5826 5823 5820 5817 5814 5810 5807 5801
5830 5833 5836 5840 5842 5842 5850 5854 5858 5862 5866 5868 5871 5873 5875 5876 5877 5875 5875 5872 5872 5871 5869 5866 5863 5861 5857 5854 5849 5845 5841 5837 5834 5830 5826 5824 5822 5818 5814 5809 5803 5800 5796 5791
5827 5830 5834 5835 5838 5841 5844 5850 5854 5858 5862 5864 5865 5867 5868 5869 5871 5871 5870 5868 5866 5865 5862 5861 5859 5855 5851 5848 5844 5841 5838 5833 5828 5824 5820 5815 5812 5808 5804 5800 5795 5791 5786 5782
5823 5826 5830 5832 5833 5834 5841 5846 5850 5853 5856 5860 5860 5861 5862 5864 5865 5866 5865 5863 5862 5861 5859 5856 5853 5849 5846 5843 5839 5833 5826 5822 5818 5814 5811 5809 5806 5802 5798 5793 5788 5783 5779 5775
5816 5821 5824 5826 5828 5830 5835 5840 5844 5847 5855 5856 5856 5856 5858 5860 5861 5860 5859 5857 5856 5855 5853 5849 5846 5843 5840 5835 5829 5824 5819 5816 5814 5811 5807 5804 5800 5796 5791 5786 5781 5777 5773 5768
5810 5814 5817 5821 5822 5826 5831 5834 5839 5847 5847 5849 5849 5852 5854 5855 5855 5856 5855 5853 5851 5850 5848 5845 5843 5839 5833 5828 5824 5819 5816 5813 5810 5807 5803 5799 5794 5788 5783 5779 5774 5770 5765 5761
5803 5807 5812 5816 5820 5825 5828 5831 5835 5838 5841 5842 5844 5846 5849 5850 5850 5850 5849 5848 5846 5843 5841 5838 5835 5828 5824 5821 5817 5815 5813 5810 5807 5802 5797 5791 5785 5781 5777 5773 5768 5763 5758 5753
5794 5801 5805 5810 5815 5820 5824 5829 5832 5834 5834 5837 5840 5843 5844 5845 5845 5844 5843 5842 5839 5836 5833 5829 5825 5821 5818 5815 5813 5810 5807 5805 5801 5795 5789 5784 5779 5775 5771 5766 5761 5756 5750 5744
5787 5795 5801 5806 5811 5815 5819 5823 5827 5826 5831 5834 5837 5839 5840 5840 5839 5839 5838 5835 5832 5829 5826 5822 5817 5815 5812 5810 5807 5804 5802 5798 5794 5788 5783 5778 5772 5768 5763 5758 5753 5748 5743 5737
5780 5788 5795 5801 5806 5811 5815 5818 5822 5826 5827 5831 5832 5833 5835 5835 5835 5834 5831 5829 5825 5822 5818 5814 5812 5809 5806 5803 5800 5798 5795 5791 5786 5781 5776 5771 5766 5761 5756 5751 5745 5740 5736 5730